Wind_Speed
23 21 20 19 18 16 16 17 18 19 19 17 14 11 9 8 7 7 6 5 4 5 5 6 7 8 8 8 7 7 6 6 6 5 5 5 5 5 5 6 7 8 9 9 9 9 9 8 7
24 23 22 20 18 16 17 20 22 22 21 18 15 12 8 7 8 7 7 6 6 6 6 7 8 9 10 9 9 8 8 8 7 7 7 7 6 6 6 6 7 7 8 8 9 9 9 7 6
25 24 23 20 17 17 20 23 24 24 22 20 17 14 10 8 8 8 8 8 8 8 7 8 9 10 10 10 10 10 9 9 9 9 9 9 8 8 8 8 7 8 8 8 8 9 8 7 6
26 24 23 20 17 20 23 25 25 25 24 22 19 15 12 10 9 9 8 8 8 8 9 9 10 11 11 11 10 11 11 11 11 11 11 10 10 10 9 9 9 8 9 8 8 9 8 8 7
26 24 22 19 19 22 26 27 27 26 25 23 20 17 14 12 11 10 9 8 9 9 10 10 11 12 12 12 12 12 12 12 13 13 12 12 11 11 11 11 10 10 10 9 9 9 8 8 8
25 23 21 20 22 25 28 29 29 28 26 24 21 18 16 14 13 12 11 10 10 10 10 11 12 13 14 14 13 13 14 14 14 14 14 13 13 13 13 13 12 11 11 10 10 9 9 9 8
24 23 21 21 24 28 30 30 30 29 26 24 21 18 16 15 15 14 13 12 12 12 12 12 13 14 15 14 14 14 15 15 15 16 16 15 15 14 14 14 14 13 12 12 11 10 10 10 9
23 22 21 22 26 29 31 32 31 30 27 25 23 19 17 17 17 16 15 15 14 14 14 14 15 16 16 16 16 16 16 16 17 17 17 17 17 16 16 16 15 14 14 13 12 11 11 11 10
22 21 21 24 28 30 32 32 32 31 28 26 24 22 20 19 18 18 18 17 16 16 16 16 17 17 18 18 18 18 18 18 18 18 18 18 18 17 17 17 16 16 15 15 14 13 13 12 11
20 20 21 25 29 31 32 31 31 31 29 27 26 24 22 21 20 19 19 18 17 16 16 16 17 19 18 19 19 20 20 20 20 20 19 20 19 19 18 18 18 17 17 16 16 15 15 13 12
19 20 23 26 29 31 31 31 31 31 30 29 27 25 24 23 23 22 22 21 19 18 18 18 18 20 20 20 20 21 21 22 22 22 22 21 21 20 20 20 19 19 18 18 18 17 16 15 14
20 21 23 26 29 30 30 30 30 30 30 29 29 28 26 25 25 24 24 23 22 21 21 21 21 21 22 23 22 23 23 24 24 24 23 23 23 22 23 22 21 21 20 20 19 19 18 16 16
19 21 22 24 27 28 29 28 29 29 30 30 30 29 27 26 27 26 26 26 24 24 24 23 24 24 24 23 23 24 26 26 26 26 25 24 24 24 23 24 23 22 22 22 21 20 19 18 17
17 18 20 22 25 27 28 28 28 29 29 30 30 29 29 28 29 29 29 28 26 25 25 25 25 24 25 25 25 27 27 27 27 27 26 24 25 25 25 24 25 24 24 24 23 21 20 20 20
15 16 19 22 25 27 28 27 28 29 29 30 30 30 30 30 30 30 30 29 27 26 26 26 26 26 26 26 26 27 27 27 27 27 27 27 26 26 26 27 26 26 25 25 25 24 22 20 21
14 16 18 21 24 26 26 26 28 29 29 29 29 29 29 30 30 30 29 28 28 28 27 28 27 27 28 27 28 28 27 28 29 29 29 29 29 29 28 29 28 27 27 26 26 25 24 23 22
15 16 18 20 23 25 25 26 28 28 28 28 28 28 28 29 29 29 28 28 28 28 28 28 30 29 28 28 29 29 29 30 30 31 31 31 30 30 31 31 30 28 27 27 26 26 26 25 24
16 17 17 19 21 23 24 24 26 26 25 25 25 26 27 27 28 28 28 28 28 28 29 29 29 29 29 30 30 29 30 31 32 32 32 32 32 31 31 31 31 30 29 28 27 26 26 27 25
18 17 17 19 21 22 22 22 23 23 23 24 23 24 24 25 26 27 27 28 28 28 29 29 28 29 29 29 29 30 30 31 32 33 33 32 32 32 30 30 30 30 30 30 28 26 27 27 27
18 18 18 19 20 21 21 21 21 21 22 22 23 23 23 24 24 26 27 27 28 28 28 28 28 28 29 29 30 30 30 31 32 33 32 31 31 31 29 29 30 31 30 29 29 28 28 26 26
18 17 18 19 21 22 22 21 21 22 22 23 23 23 23 24 25 26 27 27 27 27 27 28 27 27 28 29 29 29 30 31 31 32 32 32 31 31 31 27 27 29 28 28 27 27 28 28 27
17 17 18 19 20 21 22 22 21 22 23 24 24 25 25 25 26 27 27 27 27 26 27 27 27 27 27 27 28 28 29 30 30 30 29 30 31 31 30 29 27 27 28 28 27 26 28 28 27
16 17 17 18 19 20 20 21 19 21 22 23 25 25 25 25 26 26 27 27 27 27 27 27 27 27 27 27 27 27 27 28 29 29 29 28 28 28 28 26 26 27 27 29 28 27 28 29 29
16 16 17 17 17 18 19 20 19 20 21 21 22 23 24 25 25 25 26 27 27 27 27 27 27 27 27 27 26 26 25 25 26 28 29 29 27 26 27 27 27 27 27 26 27 26 27 28 28
15 16 17 17 16 17 17 18 18 18 19 19 20 21 22 24 24 24 25 26 26 26 26 27 27 27 27 26 26 25 24 24 24 25 27 27 25 25 26 25 25 26 26 25 25 26 26 27 27
15 15 16 17 17 16 17 17 17 17 18 19 20 21 21 21 22 23 24 26 25 25 25 25 25 24 25 25 25 24 23 23 23 24 25 25 24 23 23 22 22 23 24 24 24 25 25 25 26
15 15 15 16 16 16 15 15 16 17 18 19 20 19 19 20 21 22 23 24 24 25 25 23 23 23 22 24 25 24 23 22 22 23 23 23 23 22 21 21 22 22 22 23 23 24 24 25 25
15 15 15 16 17 16 15 15 15 16 18 18 19 19 19 20 20 21 22 22 23 24 23 23 22 22 22 23 24 24 22 21 22 22 23 23 23 22 22 22 22 22 23 23 23 23 24 25 26
15 15 15 16 17 17 17 15 16 17 18 18 18 19 19 20 20 21 21 21 22 21 22 22 22 22 22 22 22 23 22 21 21 22 23 22 21 22 23 23 22 22 23 23 24 24 24 24 25
15 15 16 17 17 17 18 16 16 18 19 19 20 20 20 20 20 21 22 22 22 22 22 22 22 22 21 21 21 20 21 21 20 20 22 22 22 23 23 24 24 23 23 23 24 24 24 24 24
Wind_Direction
254 253 250 247 245 241 234 230 230 231 233 236 241 243 247 260 283 303 311 308 298 280 268 257 255 246 244 245 243 238 235 235 238 246 252 262 277 293 303 315 324 325 327 330 330 330 331 331 331
252 251 249 246 242 233 226 225 226 230 233 236 238 236 237 257 274 291 298 300 297 285 273 262 257 248 243 245 247 246 242 241 242 246 251 258 266 278 288 298 309 316 320 324 325 326 325 325 326
249 248 247 244 239 226 220 223 227 230 234 235 235 237 239 254 271 288 293 293 291 282 271 265 260 253 248 246 248 249 247 245 246 248 250 255 261 268 278 286 296 305 312 315 316 321 320 318 316
247 245 243 240 229 218 219 223 226 230 233 236 235 235 240 255 274 284 290 289 285 277 266 261 257 254 251 248 248 248 248 248 248 249 250 254 258 265 273 278 285 291 298 302 306 311 312 309 305
246 244 241 234 220 214 217 223 227 229 233 237 239 241 245 255 267 278 283 286 282 274 265 259 255 254 253 251 250 248 248 249 251 253 254 256 259 265 272 273 276 282 291 295 296 300 300 298 295
245 242 238 227 214 211 216 223 226 229 233 236 242 245 250 257 266 275 279 284 281 274 268 264 261 257 257 257 252 248 248 250 250 252 256 257 259 263 269 272 272 276 282 285 285 289 289 289 289
242 239 232 221 211 211 217 223 227 231 234 237 240 243 250 259 267 275 277 280 278 274 272 266 264 261 258 258 254 250 249 251 251 251 254 257 260 262 268 269 271 272 276 278 278 280 282 282 282
241 237 229 219 211 213 218 223 229 232 235 237 239 241 248 258 266 273 277 281 280 276 274 267 265 264 260 257 254 252 251 250 250 252 252 256 259 261 264 264 267 267 269 272 273 272 274 276 276
240 234 226 217 211 214 219 224 230 235 236 238 240 243 248 255 264 273 280 285 284 278 273 268 265 264 260 257 255 253 253 252 251 251 251 253 256 257 260 261 263 262 262 267 268 266 266 269 269
237 230 221 216 213 216 220 225 231 236 238 242 246 249 252 258 266 274 280 287 285 280 275 269 266 264 264 261 257 256 255 254 252 250 251 253 255 255 257 258 260 261 261 262 262 262 261 262 263
232 225 220 216 215 218 221 226 232 237 241 245 249 251 256 261 266 272 278 281 282 280 276 272 270 266 264 263 261 257 258 257 254 252 252 253 255 254 254 257 258 258 257 258 260 259 259 257 258
230 226 222 219 219 219 222 228 233 238 243 248 251 254 255 260 265 270 276 280 281 281 277 271 269 267 266 263 261 257 259 259 256 254 254 255 256 256 254 254 258 256 255 256 257 257 257 256 255
230 227 223 221 221 221 223 227 233 238 243 248 252 255 258 261 265 268 272 277 279 279 278 274 268 267 265 262 261 258 260 259 257 257 255 255 255 255 254 253 255 255 254 253 254 255 256 255 254
228 227 225 224 225 225 227 230 235 239 244 249 253 257 259 262 266 269 272 274 275 276 276 273 268 266 264 262 261 260 259 255 254 254 252 254 255 254 255 253 252 254 253 253 252 252 255 256 255
226 226 227 226 228 230 231 234 237 242 246 250 254 257 259 263 267 270 273 274 274 273 273 272 271 267 266 265 264 263 262 257 255 253 251 253 255 255 255 255 252 253 252 253 252 251 254 256 256
224 225 227 228 230 233 234 237 241 244 248 251 255 258 261 264 267 270 272 272 272 272 271 270 269 269 268 266 264 263 262 258 256 255 255 254 254 255 257 256 254 254 253 253 254 253 252 252 254
225 224 227 230 232 236 237 240 244 248 250 253 256 259 261 263 266 269 271 271 272 273 272 271 270 270 268 265 262 262 260 258 258 256 257 258 256 256 257 255 254 254 254 254 255 253 251 250 250
225 226 228 233 235 238 242 243 247 251 255 259 260 261 262 264 266 268 271 272 272 273 273 272 269 268 267 264 261 261 260 258 258 256 256 258 258 257 258 253 251 251 254 252 252 252 248 247 247
227 227 229 234 239 242 245 247 251 255 258 262 264 264 265 267 270 272 274 274 273 273 272 272 270 268 268 268 265 263 262 259 257 257 257 256 258 258 258 253 252 251 253 250 250 247 247 245 244
227 228 231 236 242 246 249 252 256 261 264 265 268 270 273 274 277 276 276 276 274 272 271 271 271 270 269 268 266 264 262 259 255 255 258 258 257 254 255 251 248 249 249 247 246 245 245 244 243
230 234 236 240 246 251 256 259 263 267 270 272 274 276 277 278 279 277 275 275 273 271 270 269 272 272 270 268 266 264 263 259 258 256 255 256 257 254 254 252 249 247 246 248 247 246 245 244 241
235 240 241 245 251 255 262 264 267 271 275 278 280 279 279 280 281 277 275 276 274 272 271 271 271 270 267 266 265 264 264 261 258 259 255 254 254 253 255 252 252 249 246 246 247 247 244 243 242
240 243 247 251 256 261 267 271 272 276 278 281 282 282 280 279 279 278 277 277 275 275 275 272 271 271 269 267 265 263 262 259 257 254 252 254 255 252 250 249 248 247 244 244 246 245 243 241 243
246 250 254 257 262 267 272 275 279 281 283 286 285 283 280 279 279 277 277 276 276 275 275 273 271 270 269 267 265 261 260 257 254 252 252 249 252 251 248 248 247 247 244 242 240 240 240 240 240
250 256 259 263 267 274 276 279 285 286 288 290 289 287 285 282 280 279 278 277 276 275 274 272 271 270 267 265 263 260 257 254 251 248 248 247 249 248 246 244 244 243 240 241 240 239 238 239 240
253 261 265 269 272 277 278 282 289 290 291 293 293 291 290 287 285 283 280 280 279 276 274 270 270 270 267 263 260 259 255 252 248 246 246 245 244 246 242 240 240 239 237 237 237 238 238 238 242
259 264 268 272 277 280 283 286 292 295 293 294 295 295 293 288 286 285 284 283 279 277 275 271 270 268 265 262 259 256 254 253 248 245 244 243 243 242 239 238 238 236 234 235 237 238 239 239 240
262 269 269 273 282 286 287 291 299 298 296 297 298 297 294 290 287 286 287 286 282 278 274 271 269 267 264 261 259 255 254 252 246 244 242 241 242 241 239 236 235 236 236 237 238 240 243 242 243
265 273 277 278 283 290 294 299 301 299 299 301 301 300 296 293 290 291 290 287 285 279 273 269 268 266 263 260 257 255 251 247 242 239 238 237 239 238 238 237 237 238 240 240 241 242 243 243 246
272 277 279 280 284 289 297 305 302 301 301 301 301 301 298 295 292 291 290 289 286 282 275 269 266 264 261 258 255 252 248 243 240 238 238 239 239 238 238 237 236 237 239 240 241 242 243 244 246
Height
5861 5863 5864 5866 5868 5869 5869 5870 5869 5869 5870 5872 5874 5876 5877 5879 5881 5884 5883 5881 5881 5882 5882 5883 5884 5885 5886 5887 5888 5889 5890 5891 5893 5894 5895 5896 5897 5898 5899 5899 5900 5900 5901 5901 5901 5901 5900 5900 5900
5857 5859 5861 5863 5864 5866 5867 5866 5866 5866 5868 5869 5871 5873 5874 5876 5878 5879 5879 5880 5880 5880 5881 5882 5883 5884 5885 5885 5886 5887 5888 5889 5891 5892 5894 5895 5896 5897 5897 5898 5899 5899 5900 5900 5900 5900 5900 5900 5899
5853 5855 5858 5860 5862 5863 5863 5862 5863 5864 5865 5867 5869 5871 5872 5874 5876 5877 5878 5878 5878 5879 5879 5880 5881 5882 5883 5884 5884 5885 5886 5887 5888 5890 5891 5893 5894 5895 5896 5897 5898 5898 5898 5899 5899 5899 5899 5899 5899
5850 5852 5855 5857 5858 5859 5859 5859 5860 5861 5862 5864 5867 5869 5870 5872 5873 5874 5875 5876 5876 5877 5877 5878 5879 5880 5881 5882 5882 5883 5884 5885 5886 5887 5889 5890 5891 5893 5894 5894 5895 5896 5897 5897 5898 5898 5898 5898 5898
5846 5848 5851 5853 5855 5855 5855 5855 5856 5858 5860 5862 5865 5867 5868 5870 5871 5872 5873 5873 5874 5875 5875 5876 5876 5877 5878 5879 5880 5881 5882 5883 5884 5885 5886 5888 5889 5890 5891 5892 5893 5894 5895 5895 5896 5896 5897 5897 5897
5842 5844 5847 5849 5850 5851 5851 5851 5853 5855 5857 5860 5862 5864 5865 5867 5868 5869 5870 5871 5872 5872 5873 5873 5874 5875 5876 5876 5877 5878 5879 5880 5881 5882 5884 5885 5886 5887 5889 5889 5890 5891 5892 5893 5894 5895 5895 5896 5896
5838 5840 5843 5845 5846 5847 5847 5848 5849 5852 5854 5857 5859 5861 5862 5863 5865 5866 5867 5868 5869 5870 5870 5871 5872 5872 5873 5874 5874 5875 5876 5877 5878 5879 5881 5882 5884 5885 5886 5887 5888 5888 5889 5890 5891 5892 5893 5894 5894
5833 5837 5839 5841 5842 5843 5843 5844 5846 5849 5851 5854 5856 5858 5859 5861 5862 5863 5864 5865 5866 5867 5867 5868 5868 5869 5870 5870 5871 5872 5873 5874 5875 5876 5878 5879 5880 5882 5883 5884 5885 5886 5886 5887 5888 5889 5890 5891 5892
5829 5833 5834 5836 5837 5838 5840 5841 5843 5846 5848 5850 5852 5854 5856 5857 5859 5860 5861 5862 5863 5863 5864 5865 5865 5866 5866 5867 5868 5869 5870 5871 5872 5873 5874 5875 5877 5878 5880 5881 5882 5882 5883 5884 5885 5886 5887 5888 5889
5826 5828 5830 5832 5833 5834 5836 5838 5840 5843 5845 5847 5849 5851 5852 5854 5855 5857 5857 5858 5859 5860 5861 5861 5862 5862 5863 5863 5864 5865 5866 5868 5869 5870 5871 5872 5874 5875 5876 5877 5878 5879 5880 5881 5882 5883 5884 5885 5887
5822 5824 5825 5827 5829 5831 5833 5835 5837 5840 5842 5844 5846 5847 5849 5850 5852 5853 5854 5854 5855 5856 5857 5857 5858 5858 5859 5859 5860 5862 5863 5864 5865 5866 5867 5868 5870 5871 5873 5874 5874 5875 5876 5878 5879 5880 5881 5882 5884
5818 5820 5821 5823 5825 5828 5830 5832 5834 5836 5839 5840 5842 5843 5845 5846 5848 5849 5850 5851 5851 5852 5853 5853 5853 5854 5854 5855 5856 5857 5858 5859 5861 5862 5863 5865 5866 5867 5868 5870 5870 5871 5872 5874 5875 5876 5878 5879 5880
5815 5817 5819 5821 5823 5825 5827 5829 5831 5833 5835 5836 5838 5839 5841 5842 5843 5844 5845 5846 5847 5847 5848 5848 5849 5849 5850 5850 5851 5852 5852 5854 5855 5857 5858 5860 5861 5862 5864 5865 5866 5867 5868 5869 5871 5872 5874 5875 5876
5812 5814 5816 5818 5819 5822 5824 5826 5829 5830 5831 5833 5834 5835 5837 5838 5839 5839 5840 5841 5842 5842 5842 5842 5843 5844 5845 5845 5846 5846 5847 5849 5850 5851 5852 5854 5855 5857 5858 5859 5861 5862 5863 5864 5866 5868 5869 5871 5872
5809 5812 5813 5815 5816 5818 5821 5824 5825 5826 5828 5829 5830 5831 5832 5833 5833 5834 5835 5836 5837 5837 5837 5837 5837 5838 5839 5839 5840 5841 5841 5842 5844 5845 5846 5848 5849 5851 5853 5854 5855 5856 5857 5859 5861 5863 5864 5866 5867
5806 5808 5810 5812 5813 5815 5819 5820 5821 5822 5823 5825 5826 5827 5827 5828 5828 5828 5829 5830 5830 5831 5831 5831 5831 5832 5833 5834 5834 5835 5835 5836 5838 5839 5840 5842 5843 5845 5846 5848 5849 5850 5852 5854 5856 5857 5859 5861 5862
5803 5805 5807 5809 5810 5811 5814 5815 5816 5817 5819 5820 5821 5822 5822 5823 5823 5823 5823 5824 5824 5824 5825 5825 5825 5826 5827 5827 5828 5828 5829 5830 5831 5833 5834 5835 5837 5838 5839 5841 5843 5844 5846 5848 5850 5852 5854 5855 5857
5800 5802 5803 5805 5806 5808 5810 5811 5813 5813 5815 5816 5816 5817 5817 5817 5818 5817 5817 5818 5818 5818 5818 5818 5819 5819 5820 5820 5820 5821 5823 5824 5824 5825 5827 5828 5830 5831 5832 5834 5836 5838 5841 5842 5844 5845 5847 5849 5851
5797 5799 5801 5802 5803 5805 5806 5808 5809 5809 5810 5811 5811 5812 5812 5812 5812 5812 5812 5812 5811 5811 5811 5811 5811 5812 5812 5813 5814 5815 5816 5816 5818 5818 5819 5820 5823 5824 5826 5827 5829 5831 5834 5836 5838 5839 5841 5843 5845
5794 5797 5798 5800 5800 5801 5802 5804 5805 5805 5805 5806 5806 5806 5807 5807 5807 5806 5806 5805 5805 5805 5804 5804 5804 5804 5805 5806 5807 5808 5809 5810 5811 5811 5812 5813 5814 5817 5818 5819 5822 5824 5827 5830 5832 5834 5835 5837 5839
5792 5794 5796 5797 5797 5798 5799 5800 5801 5801 5801 5801 5801 5801 5801 5800 5800 5800 5799 5799 5798 5798 5797 5797 5797 5797 5797 5798 5799 5800 5801 5803 5804 5804 5805 5806 5808 5809 5811 5812 5815 5817 5820 5823 5826 5828 5830 5832 5834
5790 5792 5793 5793 5794 5795 5796 5796 5797 5796 5796 5796 5795 5795 5795 5794 5794 5793 5792 5792 5791 5791 5791 5790 5790 5790 5790 5790 5791 5792 5794 5795 5796 5797 5798 5800 5801 5802 5804 5806 5808 5810 5813 5816 5819 5822 5824 5826 5828
5788 5789 5790 5791 5791 5791 5791 5792 5793 5792 5791 5791 5790 5789 5788 5788 5787 5786 5785 5785 5785 5784 5784 5783 5783 5783 5783 5783 5784 5785 5786 5787 5788 5790 5791 5793 5794 5796 5798 5800 5802 5804 5806 5810 5813 5815 5818 5820 5822
5785 5787 5787 5788 5788 5788 5788 5788 5789 5788 5787 5786 5784 5783 5782 5781 5780 5780 5779 5778 5777 5777 5776 5776 5776 5776 5776 5776 5776 5777 5779 5780 5781 5782 5784 5786 5787 5789 5792 5794 5796 5798 5800 5803 5806 5809 5811 5813 5816
5783 5785 5785 5785 5785 5785 5784 5784 5785 5783 5782 5781 5779 5778 5776 5775 5774 5773 5772 5771 5770 5769 5768 5768 5768 5768 5768 5768 5769 5770 5771 5773 5774 5776 5778 5780 5781 5783 5786 5788 5790 5792 5795 5797 5800 5802 5805 5807 5809
5780 5781 5782 5782 5782 5782 5781 5780 5781 5779 5778 5776 5775 5773 5771 5769 5768 5767 5765 5764 5762 5762 5761 5761 5760 5761 5761 5761 5762 5763 5764 5765 5767 5769 5771 5773 5775 5777 5780 5782 5784 5786 5789 5791 5794 5796 5799 5801 5803
5777 5778 5778 5778 5778 5777 5777 5777 5777 5775 5774 5772 5770 5768 5766 5764 5762 5760 5759 5757 5756 5755 5754 5754 5753 5754 5754 5754 5755 5756 5757 5758 5760 5762 5764 5766 5769 5771 5774 5775 5778 5781 5783 5785 5788 5790 5792 5795 5797
5775 5775 5775 5775 5774 5773 5774 5773 5773 5771 5769 5767 5765 5763 5761 5759 5757 5755 5753 5751 5749 5748 5747 5747 5746 5747 5748 5748 5749 5750 5751 5752 5754 5756 5758 5761 5763 5766 5768 5770 5773 5775 5777 5780 5783 5785 5787 5789 5791
5772 5772 5771 5771 5771 5770 5769 5772 5769 5767 5765 5763 5761 5758 5756 5754 5752 5749 5747 5745 5743 5742 5741 5740 5740 5740 5741 5742 5742 5744 5745 5747 5748 5750 5753 5755 5757 5760 5762 5764 5767 5769 5771 5774 5777 5779 5781 5783 5785
5768 5768 5768 5768 5767 5766 5765 5768 5764 5762 5760 5758 5756 5753 5751 5749 5746 5744 5742 5739 5737 5736 5735 5734 5734 5734 5735 5735 5736 5738 5739 5741 5743 5745 5748 5750 5752 5755 5757 5759 5761 5764 5766 5768 5771 5773 5775 5777 5779